www.pogodaiklimat.ru

Погода и климат >> Архив погоды >> Россия >> Камчатский край >> Петропавловск-Камч. 2


ПОГОДА в Петропавловск-Камч. 2

  • Прогноз погоды в Петропавловск-Камч. 2
  • Монитор погоды в Петропавловск-Камч. 2

АРХИВ ПОГОДЫ в Петропавловск-Камч. 2

Время (UTC), дата Ветер
(напр.,м/с)
 
Видим.   Явления Облачность Т
(С)
Тd
(С)
f
(%)
Тe
(С)
Тes
(С)
Комфортность P
(гПа)
Po
(гПа)
Тmin
(С)
Tmax
(С)
R
(мм)
R24
(мм)
S
(см)
09 15.02 СЗ 1 20 км 8/3 600 м
[Sc Ac trans]
-9.4 -16.8 55 -11 -11 984.4 973.8 -5.4
12 15.02 СЗ 2 20 км 10/1 600 м
[Sc As trans]
-8.7 -18.3 46 -13 -13 985.0 974.3
15 15.02 З 2 20 км 10/3 600 м
[Sc As trans]
-9.1 -18.7 46 -13 -13 985.4 974.8
18 15.02 СЗ 2 20 км 6/0
[Ac trans]
-10.9 -19.3 50 -15 -15 985.8 975.1
21 15.02 СЗ 3 50 км 10/0
[Ac lent Ci fib]
-10.0 -20.4 42 -16 -16 986.7 976.0 -11.0 82
00 16.02 СЗ 4 50 км 8/0
[Ac trans Ci fib]
-6.7 -20.0 34 -13 -11 986.9 976.4
03 16.02 З 2 50 км 8/1 1000 м
[Sc Ci fib]
-5.7 -18.2 37 -9 -7 986.5 976.0
06 16.02 З 2 50 км 10/3 600 м
[Sc Ac trans Ci fib]
-7.5 -18.1 42 -11 -11 987.2 976.6
09 16.02 СЗ 1 20 км 10/0
[Ci]
-10.0 -18.2 51 -12 -12 988.5 977.8 -5.5
12 16.02 С 1 20 км 10/0
[Ci]
-11.3 -18.6 55 -13 -13 989.3 978.6
15 16.02 СЗ 1 50 км 10/0
[Ci fib]
-11.5 -18.1 58 -14 -14 990.1 979.3
18 16.02 СЗ 1 20 км 10/1 600 м
[Sc Ac trans Ci]
-12.4 -17.6 65 -15 -15 990.4 979.6
21 16.02 С 1 50 км 10/1 600 м
[Sc Ac trans Ci fib]
-12.3 -17.3 66 -15 -14 991.1 980.3 -13.2 82
00 17.02 СЗ 2 50 км 10/1 600 м
[Sc Ac trans Cs]
-8.7 -16.5 53 -13 -11 992.0 981.3
03 17.02 З 2 50 км 8/1 600 м
[Sc Ci fib]
-6.4 -17.4 41 -10 -8 991.5 980.9
06 17.02 З 2 50 км 3/1 1000 м
[Sc Ci fib]
-8.2 -18.0 45 -12 -12 992.3 981.6
09 17.02 С 1 20 км ясно -12.6 -18.8 60 -15 -15 994.0 983.1 -5.5
12 17.02 СЗ 1 20 км ясно -14.8 -20.0 64 -17 -17 995.1 984.2
15 17.02 С 2 20 км ясно -13.6 -19.6 61 -18 -18 995.9 985.0
18 17.02 С 2 50 км 10/0
[Ci fib]
-15.2 -20.9 62 -20 -20 997.0 986.0
21 17.02 СЗ 2 50 км ясно -15.9 -21.8 60 -21 -21 998.9 987.8 -16.1 81
00 18.02 СЗ 2 50 км ясно -11.4 -20.3 48 -16 -12 999.9 989.0
03 18.02 З 1 50 км 1/0
[Ci fib]
-7.3 -19.2 38 -9 -5 1000.0 989.3
06 18.02 СЗ 1 50 км ясно -7.9 -18.5 42 -10 -10 1001.1 990.4
09 18.02 СВ 1 20 км ясно -14.6 -19.4 67 -17 -17 1003.5 992.4 -5.5
12 18.02 СЗ 1 20 км 1/0
[Ci fib]
-15.4 -20.0 68 -18 -18 1005.2 994.1
15 18.02 С 3 50 км 1/0
[Ci fib]
-14.6 -20.5 61 -21 -21 1006.3 995.2
18 18.02 С 1 50 км 3/0
[Ci fib]
-14.3 -20.0 62 -17 -17 1007.5 996.4
21 18.02 СЗ 1 50 км 6/3 600 м
[Sc Ci fib]
-14.1 -19.9 61 -17 -16 1009.3 998.2 -16.0 81
00 19.02 З 2 50 км 8/3 600 м
[Sc Ac trans Ci fib]
-8.7 -17.9 47 -13 -11 1010.2 999.3
03 19.02 СЗ 1 50 км 8/4 600 м
[Sc Ac trans Ci fib]
-4.8 -15.9 41 -6 -5 1009.6 998.9
06 19.02 СЗ 1 50 км 9/3 1000 м
[Sc Ac lent Ci fib]
-5.8 -15.5 46 -8 -7 1009.8 999.0
09 19.02 С 1 50 км 8/0
[Ac lent Ci fib]
-11.9 -16.1 71 -14 -14 1011.0 1000.0 -4.3
12 19.02 С 1 50 км ясно -14.9 -17.8 78 -17 -17 1011.7 1000.5
15 19.02 СЗ 1 50 км ясно -14.9 -18.2 76 -17 -17 1011.7 1000.5
18 19.02 С 2 50 км ясно -15.4 -19.2 73 -20 -20 1011.9 1000.7
21 19.02 СЗ 2 50 км 9/0
[Cc]
-14.4 -18.7 70 -19 -19 1012.1 1001.0 -15.6 81
00 20.02 С 2 50 км 1/0
[Ci fib]
-10.8 -17.9 56 -15 -12 1011.8 1000.8
03 20.02 СЗ 1 50 км 1/0
[Ci fib]
-6.6 -17.1 43 -8 -4 1010.5 999.7
06 20.02 штиль 0 50 км ясно -7.1 -17.5 43 -7 -7 1009.9 999.1
09 20.02 СВ 1 50 км ясно -13.6 -18.6 66 -16 -16 1010.8 999.7 -5.3
12 20.02 С 2 50 км ясно -13.2 -20.4 55 -18 -18 1010.6 999.5
15 20.02 СЗ 2 50 км ясно -14.6 -22.0 53 -20 -20 1010.1 999.0
18 20.02 СЗ 2 50 км ясно -16.9 -23.2 58 -22 -22 1009.5 998.2
21 20.02 С 2 50 км ясно -14.5 -22.8 49 -19 -19 1008.6 997.5 -18.1 80
00 21.02 СЗ 2 50 км ясно -12.0 -22.1 43 -17 -13 1007.4 996.4
03 21.02 СЗ 1 50 км 8/0
[Ac trans]
-7.4 -19.3 38 -9 -7 1005.2 994.5
06 21.02 З 1 50 км ясно -7.9 -20.5 36 -10 -10 1004.7 993.9
09 21.02 СЗ 1 20 км ясно -13.1 -20.8 52 -15 -15 1005.6 994.6 -5.7
21 21.02 С 2 50 км ясно -17.2 -22.9 61 -23 -22 1004.7 993.5 -19.0 80
00 22.02 СЗ 3 50 км 1/0
[Ci fib]
-10.6 -19.6 48 -16 -13 1003.7 992.8

 

Местоположение метеостанции Петропавловск-Камч. 2 (Камчатский край, Россия): широта 53.08 долгота 158.50 высота над уровнем моря 84 м.

В архиве по умолчанию представлена погода в Петропавловск-Камч. 2 за последнюю неделю. Архивные данные за месяц целиком и за предыдущие месяцы, начиная с января 2011 года, Вы можете получить, выбрав интересующий диапазон дат из раскрывающегося списка и нажав кнопку "Ввод!".


*Определитесь, кто Вы:
робот инопланетянин человек

Внимание! Время в таблицах - всемирное. Для получения местного времени необходимо прибавить поправку, которая равна 12 ч.

Смотрите также архив погоды в соседних городах и на ближайших метеорологических станциях:

Погода в Сосновке (Камчатский край, Россия) (13 км)
Погода в Петропавловск-Камчатском (Камчатский край, Россия) (24 км)
Погода в Петропавловском Маяке (Камчатский край, Россия) (26 км)
Погода в Начиках (Камчатский край, Россия) (54 км)
Погода в Пущино (Камчатский край, Россия) (127 км)
Погода в Водопадной (Камчатский край, Россия) (144 км)
Погода в Семячике (Камчатский край, Россия) (148 км)
Погода в Большерецке (Камчатский край, Россия) (150 км)
Погода в Мильково (Камчатский край, Россия) (178 км)
Погода в Соболево (Камчатский край, Россия) (218 км)

Пояснения к столбцам:

Ветер - указаны скорость ветра в м/с - средняя за 10 мин, порывы в срок и между сроками (в фигурных скобках) и направление, откуда дует ветер: С - северный, СВ - северо-восточный, В - восточный, ЮВ - юго-восточный, Ю - южный, ЮЗ - юго-западный, З - западный, СЗ - северо-западный.
Видимость - горизонтальная дальность видимости в метрах или километрах. При видимости от 1 до 10 км при отсутствии осадков обычно наблюдается дымка, при ухудшении видимости до 1 км и менее - туман. В сухую погоду видимость может ухудшаться дымом, пылью или мглою.
Явления - указаны атмосферные явления, наблюдавшиеся в срок или в последний час перед сроком; фигурными скобками обозначены явления, наблюдавшиеся между сроками (за 1-3 часа до срока); квадратными скобками обозначены град или гололедные отложения с указанием их диаметра в мм.
Облачность - указаны через наклонную черту общая и нижняя облачность в баллах и высота нижней границы облаков в метрах; квадратными скобками обозначены формы облаков: Ci - перистые, Cs - перисто-слоистые, Cc - перисто-кучевые, Ac - высококучевые, As - высокослоистые, Sc - слоисто-кучевые, Ns - слоисто-дождевые, Cu - кучевые, Cb - кучево-дождевые. Подробнее классификацию облаков см. в Атласе облаков (PDF).
T - Температура воздуха - температура, измеренная на высоте 2 м над землей.
Td - Температура точки росы - температура, при понижении до которой содержащийся в воздухе водяной пар достигнет насыщения.
f - Относительная влажность воздуха - влажноcть воздуха, измеренная на высоте 2 м над землей.
Te - Эффективная температура - температура, которую ощущает одетый по сезону человек в тени. Характеристика душности погоды. При расчете учитывается влияние влажности воздуха и скорости ветра на теплоощущения человека.
Tes - Эффективная температура на солнце - температура, которую ощущает человек, с поправкой на солнечный нагрев. Характеристика знойности погоды. Зависит от высоты солнца над горизонтом, облачности и скорости ветра. Ночью, в пасмурную погоду, а также при ветре 12 м/с и более поправка равна нулю.
P - Атмосферное давление - приведенное к уровню моря атмосферное давление.
Po - Атмосферное давление - измеренное на уровне метеостанции атмосферное давление.
Tmin - Минимальная температура - минимум температуры воздуха на высоте 2 м над землей.
Tmax - Максимальная температура - максимум температуры воздуха на высоте 2 м над землей.
R - Количество осадков - Количество выпавших осадков за период времени, мм. При наведении курсора мыши на число - период времени, за который выпало указанное количество осадков.
R24 - Количество осадков - Количество выпавших осадков за 24 часа, мм.
S - Снежный покров - Высота снежного покрова, см. При наведении курсора мыши на число - состояние снежного покрова и степень покрытия местности в баллах.